Regional Weather Roundup
Issued by NWS

Home | Current Version | Previous Version | Text Only | Print | Product List | Glossary On
Versions: 1 2 3 4 5 6 7 8 9 10 11 12 13 14 15 16 17 18 19 20 21 22 23 24 25 26 27 28 29 30 31 32 33 34 35 36 37 38 39 40 41 42 43 44 45 46 47 48 49 50
000
ASUS45 KPSR 261510
RWRAZ

ARIZONA REGIONAL HOURLY WEATHER ROUNDUP
NATIONAL WEATHER SERVICE PHOENIX AZ
800 AM MST MON JAN 26 2015

NOTE: FAIR INDICATES FEW OR NO CLOUDS BELOW 12,000 FEET WITH NO
SIGNIFICANT WEATHER AND/OR OBSTRUCTIONS TO VISIBILITY.

AZZ001>003-036-261600-
NORTHWEST ARIZONA

CITY           SKY/WX    TMP DP  RH WIND       PRES   REMARKS
BULLHEAD CITY  PTSUNNY   63  32  31 MISG      30.12R
KINGMAN        PTSUNNY   37  25  61 CALM      30.19S
$$

AZZ004>008-015-016-018-261600-
NORTH CENTRAL ARIZONA

CITY           SKY/WX    TMP DP  RH WIND       PRES   REMARKS
GRAND CANYON   PTSUNNY   42  23  46 E7        30.31R
PRESCOTT       CLOUDY    33  22  63 S3        30.26S
FLAGSTAFF      PTSUNNY   36  21  54 E8        30.33R WCI  30
PAYSON         PTSUNNY   46  23  39 E3        30.28S
PAGE           SUNNY     34  23  64 CALM      30.35R
$$

AZZ009>014-017-261600-
NORTHEAST ARIZONA

CITY           SKY/WX    TMP DP  RH WIND       PRES   REMARKS
WINSLOW        CLOUDY    28  24  85 SE6       30.36R WCI  22
SAINT JOHNS    PTSUNNY   23  19  85 CALM      30.34S
WINDOW ROCK    SUNNY     23  19  85 CALM      30.38R
SHOW LOW       PTSUNNY   27  19  74 CALM      30.35S
$$

AZZ023-261600-
GREATER PHOENIX AREA

CITY           SKY/WX    TMP DP  RH WIND       PRES   REMARKS
PHOENIX        PTSUNNY   54  33  45 CALM      30.10R
BUCKEYE          N/A     50  30  46 N5        30.11R
GLENDALE       PTSUNNY   46  34  61 CALM      30.12R
LUKE AFB       NOT AVBL
DEER VALLEY    PTSUNNY   56  27  32 CALM      30.11R
SCOTTSDALE     PTSUNNY   54  30  40 NW3       30.12R
MESA-FALCON    PTSUNNY   57  25  28 NE9       30.11R
MESA-GATEWAY   MOSUNNY   45  28  53 E5        30.13
CHANDLER       PTSUNNY   46  34  61 CALM      30.11R
$$

AZZ027-028-261600-
SOUTHWEST MARICOPA COUNTY AND PINAL COUNTY

CITY           SKY/WX    TMP DP  RH WIND       PRES   REMARKS
CASA GRANDE    PTSUNNY   54  25  32 NE8       30.11F
GILA BEND      CLOUDY    54  26  33 N2        30.10R
$$

AZZ503-504-507>509-261600-
SOUTHEAST ARIZONA

CITY           SKY/WX    TMP DP  RH WIND       PRES   REMARKS
TUCSON         CLOUDY    53  28  38 S3        30.16R
DAVIS-MONTHAN  CLOUDY    58  24  27 SE13      30.14R
RYAN FIELD       N/A     54  30  40 SE7       30.15R
NOGALES        CLOUDY    53  30  41 E6        30.19R
SIERRA VISTA   CLOUDY    46  21  36 N3        30.24R
DOUGLAS        CLOUDY    44  23  43 CALM      30.25R
SAFFORD        PTSUNNY   46  23  40 SE13      30.25R
$$

AZZ020-021-025-026-031-261600-
SOUTHWEST ARIZONA

CITY           SKY/WX    TMP DP  RH WIND       PRES   REMARKS
YUMA           LGT RAIN  56  45  66 NE12      30.08R
$$

CAZ031-033-041-043-047-048-061-261600-
SOUTHERN CALIFORNIA

CITY           SKY/WX    TMP DP  RH WIND       PRES   REMARKS
DOWNTOWN L.A.  CLOUDY    67  33  28 E5        29.99R
L.A. AIRPORT   CLOUDY    67  34  29 E10       29.98S
SAN DIEGO      PTSUNNY   60  33  36 N5        30.00R
BURBANK        CLOUDY    59  39  47 CALM      30.00R
ONTARIO        CLOUDY    64  33  31 N8        30.02S
RIVERSIDE      CLOUDY    61  34  36 NE8       30.02S
PALM SPRINGS   CLOUDY    61  34  36 CALM      30.09R
EL CENTRO NAS  PTSUNNY   58  41  53 NW6       30.05R
IMPERIAL       CLOUDY    58  42  55 N3        30.05R
BLYTHE         CLOUDY    53  37  54 SE5       30.11R
NEEDLES        CLOUDY    58  32  37 W6        30.11R
$$

NVZ020-UTZ003-261600-
SOUTHERN NEVADA-UTAH

CITY           SKY/WX    TMP DP  RH WIND       PRES   REMARKS
LAS VEGAS      PTSUNNY   52  31  44 S12       30.14S
SALT LAKE CITY SUNNY     32  28  85 SE5       30.39S WCI  27
$$

NMZ009-TXZ055-261600-
NEW MEXICO-WEST TEXAS

CITY           SKY/WX    TMP DP  RH WIND       PRES   REMARKS
ALBUQUERQUE    MOSUNNY   34  24  67 N5        30.38R WCI  30
EL PASO        CLOUDY    41  27  57 N8        30.33R
$$


........................KEY........................
SKY/WX - SKY CONDITION/WEATHER
TMP    - TEMPERATURE IN FAHRENHEIT
DP     - DEW POINT IN FAHRENHEIT
RH     - RELATIVE HUMIDITY IN PERCENT
WIND   - DIRECTION AND SPEED IN MILES PER HOUR (MPH)
VRB    - VARIABLE WIND DIRECTION
PRES   - MEAN SEA LEVEL PRESSURE IN INCHES OF MERCURY
         F - FALLING PRESSURE   R - RISING PRESSURE
         S - STEADY PRESSURE
VSB    - VISIBILITY IN MILES
HX     - HEAT INDEX IN FAHRENHEIT
WCI    - WIND CHILL INDEX IN FAHRENHEIT
TC     - TEMPERATURE IN CELSIUS WHICH IS ALSO KNOWN AS
         TEMPERATURE IN CENTIGRADE
AFB    - AIR FORCE BASE
         LUKE AFB IS LUKE AIR FORCE BASE
         DAVIS-MONTHAN IS DAVIS-MONTHAN AIR FORCE BASE
NAS    - NAVAL AIR STATION
         EL CENTRO NAS IS EL CENTRO NAVAL AIR STATION
N/A    - NOT AVAILABLE


USA.gov is the U.S. government's official web portal to all federal, state and local government web resources and services.